This demonstration page uses our WeatherBlox Daily Observations layout. Learn more.

Left ArrowRight Arrow

Hourly Observations for January 20, 2017

Temp ( °F °C ) Dew Point ( °F °C ) Humidity (%) Winds ( mph kmh ) Pressure ( in mb ) Visibility ( mi km ) Precip ( " mm )
12:53 am 00:53 Clear 53 11.7 30 -1.1 41 41 WSW 16 26 29.69 1005 10 16 0.00 0.00
1:53 am 01:53 Clear 50 10 31 -0.6 48 48 SW 12 19 29.67 1005 10 16 0.00 0.00
2:53 am 02:53 Clear 49 9.4 31 -0.6 50 50 SW 13 20 29.68 1005 10 16 0.00 0.00
3:53 am 03:53 Clear 50 10 30 -1.1 46 46 SW 14 22 29.68 1005 10 16 0.00 0.00
4:53 am 04:53 Clear 46 7.8 30 -1.1 54 54 SW 8 13 29.68 1005 10 16 0.00 0.00
5:53 am 05:53 Clear 47 8.3 30 -1.1 52 52 SW 5 7 29.67 1005 10 16 0.00 0.00
6:53 am 06:53 Clear 42 5.6 31 -0.6 65 65 S 5 7 29.71 1006 10 16 0.00 0.00
7:53 am 07:53 Sunny 40 4.4 31 -0.6 70 70 SW 6 9 29.71 1006 10 16 0.00 0.00
8:53 am 08:53 Sunny 45 7.2 33 0.6 63 63 WSW 5 7 29.72 1006 10 16 0.00 0.00
9:53 am 09:53 Sunny 50 10 32 0 50 50 S 3 6 29.72 1006 10 16 0.00 0.00
10:53 am 10:53 Sunny 56 13.3 31 -0.6 39 39 WSW 7 11 29.71 1006 10 16 0.00 0.00
11:53 am 11:53 Sunny 61 16.1 29 -1.7 30 30 W 13 20 29.70 1006 10 16 0.00 0.00
12:53 pm 12:53 Sunny 64 17.8 26 -3.3 24 24 W 31 50 29.64 1004 10 16 0.00 0.00
1:53 pm 13:53 Sunny 65 18.3 27 -2.8 24 24 W 25 41 29.60 1003 10 16 0.00 0.00
2:53 pm 14:53 Sunny 66 18.9 27 -2.8 23 23 W 26 43 29.59 1002 10 16 0.00 0.00
3:53 pm 15:53 Sunny 66 18.9 27 -2.8 23 23 W 18 30 29.58 1002 10 16 0.00 0.00
4:53 pm 16:53 Sunny 66 18.9 25 -3.9 21 21 W 17 28 29.59 1002 10 16 0.00 0.00
5:53 pm 17:53 Sunny 63 17.2 27 -2.8 26 26 WNW 13 20 29.58 1002 10 16 0.00 0.00
6:53 pm 18:53 Clear 57 13.9 29 -1.7 34 34 NW 8 13 29.60 1002 10 16 0.00 0.00
7:53 pm 19:53 Clear 55 12.8 32 0 42 42 WNW 6 9 29.61 1003 10 16 0.00 0.00
8:53 pm 20:53 Clear 48 8.9 34 1.1 58 58 NNW 7 11 29.61 1003 10 16 0.00 0.00
9:53 pm 21:53 Clear 47 8.3 33 0.6 59 59 WNW 5 7 29.59 1002 10 16 0.00 0.00
10:53 pm 22:53 Clear 47 8.3 35 1.7 63 63 SSE 5 7 29.58 1002 10 16 0.00 0.00
11:53 pm 23:53 Partly Cloudy 47 8.3 36 2.2 66 66 SSW 8 13 29.58 1002 10 16 0.00 0.00

Powered by AerisWeather